Home > Weather > Jelgava > Past weeks

Flag for Latvia Past Weather in Jelgava, Latvia — Yesterday and Last 2 Weeks

Now
81 °F

Passing clouds.


Feels Like: 80 °F
Forecast: 62 / 81 °F
Wind: 9 mph from East

Location: Riga Airport

Current Time: May 31, 2016 at 3:10:29 PM

Latest Report: May 31, 2016 at 2:20 PM


Visibility: N/A

Pressure: 30.04 "Hg

Humidity: 37%

Dew Point: 52 °F

Location of JelgavaLocation

Past Weather in Jelgava — Graph

°F

Jelgava Temperature Yesterday

Maximum temperature yesterday: 84 °F (at 4:20 PM)
Minimum temperature yesterday: 63 °F (at 12:20 AM)
Average temperature yesterday: 74 °F

High & Low Weather Summary for the Past Weeks

 TemperatureHumidityPressure
High84 °F (May 30, 4:20 PM)100% (May 17, 11:50 PM)30.18 "Hg (May 17, 11:50 PM)
Low36 °F (May 18, 4:20 AM)30% (May 31, 1:50 PM)29.71 "Hg (May 16, 2:20 PM)
Average59 °F69%29.96 "Hg
* Reported May 16 2:20 PM — May 31 2:20 PM, Jelgava, Weather by CustomWeather, © 2016

Note: Actual official high and low records may vary slightly from our data, if they occured in-between our weather recording intervals... More about our weather records

Advertising

Jelgava Weather History for the Previous 24 Hours

Scroll right to see more
 ConditionsComfort  
Time TempWeatherWind HumidityBarometerVisibility
2:20 PM
Tue, May 31
81 °FPassing clouds.9 mph37%30.04 "HgN/A
1:50 PM82 °FPassing clouds.12 mph30%30.04 "HgN/A
1:20 PM81 °FPassing clouds.10 mph37%30.04 "HgN/A
12:50 PM82 °FPassing clouds.10 mph35%30.04 "HgN/A
12:20 PM81 °FPassing clouds.10 mph37%30.04 "HgN/A
11:50 AM81 °FPassing clouds.10 mph39%30.04 "HgN/A
11:20 AM81 °FPassing clouds.9 mph45%30.04 "HgN/A
10:50 AM79 °FPassing clouds.8 mph51%30.04 "HgN/A
10:20 AM75 °FPassing clouds.7 mph54%30.04 "HgN/A
9:50 AM75 °FPassing clouds.7 mph57%30.04 "HgN/A
9:20 AM73 °FPassing clouds.6 mph57%30.04 "HgN/A
8:50 AM72 °FPassing clouds.5 mph61%30.04 "HgN/A
8:20 AM72 °FSunny.6 mph61%30.04 "Hg10 mi
7:50 AM70 °FPassing clouds.5 mph64%30.04 "HgN/A
7:20 AM70 °FSunny.6 mph64%30.04 "Hg10 mi
6:50 AM68 °FPassing clouds.3 mph69%30.04 "HgN/A
6:20 AM68 °FScattered clouds.3 mph69%30.04 "HgN/A
5:50 AM66 °FScattered clouds.3 mph68%30.04 "HgN/A
5:20 AM66 °FPassing clouds.3 mph68%30.04 "HgN/A
4:50 AM68 °FPassing clouds.2 mph64%30.04 "HgN/A
4:20 AM68 °FThundershowers. Passing clouds.3 mph64%30.04 "HgN/A
3:50 AM68 °FPassing clouds.6 mph64%30.04 "HgN/A
3:20 AM68 °FPassing clouds.6 mph64%30.04 "HgN/A
2:50 AM70 °FPassing clouds.7 mph60%30.04 "HgN/A
2:20 AM70 °FClear.7 mph60%30.04 "Hg10 mi
1:50 AM70 °FClear.6 mph57%30.04 "Hg10 mi
1:20 AM72 °FClear.7 mph53%30.04 "Hg10 mi
12:50 AM72 °FClear.6 mph53%30.04 "Hg10 mi
12:20 AM70 °FPassing clouds.3 mph60%30.04 "HgN/A
11:50 PM
Mon, May 30
72 °FClear.3 mph61%30.01 "Hg10 mi
11:20 PM72 °FPassing clouds.3 mph61%30.01 "HgN/A
10:50 PM73 °FPassing clouds.3 mph57%30.01 "HgN/A
10:20 PM73 °FPassing clouds.3 mph57%30.01 "HgN/A
9:50 PM77 °FSunny.7 mph47%30.01 "Hg10 mi
9:20 PM79 °FPassing clouds.7 mph45%30.01 "HgN/A
8:50 PM79 °FSunny.8 mph42%29.98 "Hg10 mi
8:20 PM81 °FPassing clouds.8 mph39%29.98 "HgN/A
7:50 PM81 °FPassing clouds.12 mph45%29.98 "HgN/A
7:20 PM82 °FSunny.16 mph40%29.98 "Hg10 mi
6:50 PM82 °FPassing clouds.14 mph42%29.98 "HgN/A
6:20 PM82 °FSunny.15 mph40%29.98 "Hg10 mi
5:50 PM82 °FSunny.16 mph42%29.98 "Hg10 mi
5:20 PM84 °FPassing clouds.10 mph33%29.98 "HgN/A
4:50 PM84 °FPassing clouds.9 mph37%29.98 "HgN/A
4:20 PM84 °FPassing clouds.9 mph35%30.01 "HgN/A
3:50 PM82 °FPassing clouds.12 mph40%30.01 "HgN/A
3:20 PM82 °FPassing clouds.9 mph42%30.01 "HgN/A
Weather by CustomWeather, © 2016

See weather overviewHow to use our weather pages